Preview of NWS' New Version of Forecast
This preview is not operational and should not be used for support decisions.

Regional Weather Roundup (RWR)

Issued by Gray - Portland, ME (GYX)

                            
000
ASUS41 KGYX 250905
RWRGYX
WEATHER ROUNDUP FOR MAINE AND NEW HAMPSHIRE
NATIONAL WEATHER SERVICE GRAY ME
500 AM EDT SUN AUG 25 2019

MEZ002-005-006-010-012-015-018-020-021-024-026-027-029-251000-
MAINE
  
CITY           SKY/WX    TMP DP  RH WIND       PRES   REMARKS
PORTLAND       FAIR      56  52  86 N6        30.35R                  
SANFORD        FAIR      54  54 100 NE3       30.34R                  
BAR HARBOR     FAIR      48  47  96 CALM      30.37R                  
WISCASSET      FAIR      50  49  96 CALM      30.36S                  
ROCKLAND       FAIR      54  50  86 NE6       30.35R                  
FRYEBURG       MOCLDY    49  48  97 CALM      30.36S FOG              
LEWISTONAUBURN FAIR      51  50  96 CALM      30.36R                  
AUGUSTA        FAIR      51  51 100 N3        30.37R                  
WATERVILLE     FAIR      50  50 100 N6        30.34S                  
BANGOR         FAIR      50  48  93 N5        30.38R                  
GREENVILLE       N/A     51  48  89 CALM      30.36S                  
MILLINOCKET    FAIR      47  45  93 CALM      30.39F                  
HOULTON        FAIR      42  40  92 CALM      30.37S                  
PRESQUE ISLE   FAIR      42  41  96 CALM      30.40R                  
FRENCHVILLE    FAIR      47  43  86 N3        30.37S                  
CARIBOU        FAIR      46  44  93 CALM      30.38R                  
$$

NHZ002-005-008-009-011-012-014-251000-
NEW HAMPSHIRE
  
CITY           SKY/WX    TMP DP  RH WIND       PRES   REMARKS
PORTSMOUTH     PTCLDY    59  55  85 N6        30.30S                  
ROCHESTER      FAIR      56  53  90 N3        30.32S                  
NASHUA         CLOUDY    58  58 100 NW5       30.32R                  
MANCHESTER     MOCLDY    61  56  83 N7        30.30S                  
CONCORD        FAIR      56  53  90 NE3       30.33R                  
LACONIA        FAIR      58  55  90 CALM      30.34R                  
PLYMOUTH       FOG       50  49  97 CALM      30.35R VSB 1/4          
BERLIN         NOT AVBL                                               
WHITEFIELD     FAIR      41  39  93 CALM      30.36R                  
JAFFREY        MOCLDY    55  52  89 CALM      30.33S                  
KEENE          MOCLDY    53  52  96 CALM      30.33S                  
LEBANON        MOCLDY    58  54  86 CALM      30.33R                  
MT WASHINGTON  MOCLDY    37  32  81 SE15        N/A                   
$$

VTZ005-007-008-251000-
VERMONT
  
CITY           SKY/WX    TMP DP  RH WIND       PRES   REMARKS
ST JOHNSBURY     N/A     49  49 100 MISG      30.35R                  
MONTPELIER     FOG       50  50 100 CALM      30.38S VSB 1            
BURLINGTON     FAIR      54  51  90 E3        30.33R                  
$$

MAZ007-012-024-CTZ003-RIZ002-NYZ038-NYZ072-251000-
SOUTHERN NEW ENGLAND AND NY
  
CITY           SKY/WX    TMP DP  RH WIND       PRES   REMARKS
BOSTON         FAIR      63  56  78 N8        30.29S                  
WORCESTER      CLOUDY    56  55  97 N7        30.30S                  
NANTUCKET      MOCLDY    64  59  83 NE7       30.22S                  
PROVIDENCE     FAIR      59  57  93 N7        30.27S                  
HARTFORD       FAIR      57  54  89 N5        30.29S                  
ALBANY         CLOUDY    62  55  77 N3        30.31R                  
NEW YORK CITY  FAIR      67  58  72 NE16      30.23S                  
$$

ANZ081-ANZ082-ANZ150-NHZ014-MEZ023>029-251000-
COASTAL MARINE OBSERVATIONS
  
STATION/POSITION TIME  TEMP    WIND        PRES    WAVE
                       AIR SEA DIR/SP/G            HT/PER
                 (UTC) (F)     (DEG/KT/KT) (MB)    (FT/S)
MATINICUS ROCK   0850   57                 1026.5R
ISLE OF SHOALS   0800   64      60/ 17/ 19 1025.4R
JEFFREYS LEDGE   0838      68                N/A     4/ 5
CASHES LEDGE BUO 0850   61 63   40/ 16/ 17 1025.9F   3/ 6
GEORGES BANK BUO 0850   65 66   20/ 16/ 19 1021.6R   5/ 6
$$

.............KEY..............
   WCI - WIND CHILL
   TC  - TEMPERATURE IN CELSIUS
   VSB - VISIBILITY IN MILES
   HX  - HEAT INDEX
   FAIR- INDICATES FEW OR NO CLOUDS BELOW 12,000 FT, WITH NO 
         SIGNIFICANT WEATHER AND/OR OBSTRUCTIONS TO VISIBILITY.